SL-8 DEB, 1479

Orbit data source: Space-Track

SL-8 DEB, 1479 is space debris in LEO originally from a launch on Mon, 15 Mar 1965 UTC launched from the Tyuratam Missile And Space Complex (TTMTR). Debris objects in space refer to the collection of defunct objects orbiting the Earth. Examples of debris include non-operational satellites, rocket bodies, and fragments generated from explosions, collisions, or faulty payload assembly.

Loading next visibility...
Identifier
1479, 1965-020BD
Orbit
LEO
Country
Flag of CISCIS
Related business
Manufacturer
Unknown
Mission
Spacecraft
Bus & Motor
Unknown
Mass
Unknown
Launch date (UTC)
1965-03-15 (61 years ago)
Launch vehicle
Unknown
Launch site
Tyuratam Missile And Space Complex (TTMTR)
Object type
Payload
Rocket body
Debris
Shape & HBR
Unknown shape, 0.1 m
Radar Cross Section
Small (<0.1 m²)

Expand to show TLE details & history
Last TLE update: 12 hours ago

TLE from 12 hours ago
0 SL-8 DEB
1 01479U 65020BD  26125.80592936  .00000277  00000-0  75999-3 0  9990
2 01479  56.0348  56.7973 0739176   9.8000 351.6471 12.59995815791026
Epoch: 2026-05-05T19:20Z
TLE epoch observation values (Epoch: 2026-05-05T19:20:32.296Z)
Latitude
-0.00009°
Longitude
-97.01282°
Altitude
854.498 km
Speed
7.692 km/s
True Right ascension
03h 47m 11s
True Declination
0° 00' 00"
Sunlit
Object was in daylight at epoch
Visualization orbit readout
Latitude
Unknown
Longitude
Unknown
Altitude
Unknown
Speed
Unknown
Apparent Right ascension
Unknown
Apparent Declination
Unknown
Sunlit
N/A
Visualization observer readout
Local Sidereal Time
15:43:22
Azimuth
Unknown
Elevation
Unknown
Doppler factor
Unknown
Orbital elements
Apogee altitude
1,999.411 km
Perigee altitude
846.16 km
Semi-major axis
7,800.922 km
Eccentricity
0.07392
Inclination
56.0348°
RAAN
56.7973°
Arg. of periapsis
9.8°
True anomaly
350.2935°
Mean anomaly
351.6471°
Eccentric anomaly
350.98336°
Mean motion
3.1501 °/min
Orbital period
114.28 mins
BSTAR
0.00075999
Loading maneuver chart data...
Computing Atmospheric mass density...

Documentation

Showing up to 5 results
|